Regional Weather Roundup
Issued by NWS

Home | Current Version | Previous Version | Graphics & Text | Print | Product List | Glossary On
Versions: 1 2 3 4 5 6 7 8 9 10 11 12 13 14 15 16 17 18 19 20 21 22 23 24 25 26 27 28 29 30 31 32 33 34 35 36 37 38 39 40 41 42 43 44 45 46 47 48 49 50
000
ASUS45 KBOU 081107
RWRCO

WEATHER ROUNDUP FOR COLORADO
NATIONAL WEATHER SERVICE DENVER/BOULDER CO
400 AM MST MON FEB 08 2016

NOTE: "FAIR" INDICATES FEW OR NO CLOUDS BELOW 12000 FEET WITH NO
SIGNIFICANT WEATHER AND/OR OBSTRUCTIONS TO VISIBILITY.

COZ001>005-013-030-031-081200-
...NORTHWEST COLORADO...

CITY           SKY/WX    TMP DP  RH WIND       PRES   REMARKS
CRAIG          CLOUDY    -5 -10  79 CALM      30.55S
HAYDEN         CLOUDY    16  10  79 SE9       30.52R WCI   4
MEEKER         CLOUDY     7   3  84 CALM      30.54F
MOUNT WERNER   NOT AVBL
STEAMBOAT SPGS CLOUDY    14  11  88 CALM      30.53R
WALDEN         CLOUDY    27  16  63 S6        30.44S WCI  20
$$

COZ006>008-011-081200-
...WEST CENTRAL VALLEYS...

CITY           SKY/WX    TMP DP  RH WIND       PRES   REMARKS
GRAND JUNCTION CLOUDY    12  10  92 E7        30.55F WCI   1
MONTROSE       CLOUDY    14   8  77 S8        30.58S WCI   3
EAGLE          CLOUDY    10  10 100 S3        30.58F
RIFLE          CLOUDY    11   6  81 S5        30.57F WCI   3
DELTA          CLOUDY    20  16  85 CALM      30.57F
NUCLA          CLOUDY    19  14  79 SE3       30.56R
$$

COZ017>023-064>068-081200-
...SOUTHWEST COLORADO...

CITY           SKY/WX    TMP DP  RH WIND       PRES   REMARKS
DURANGO        CLOUDY    12   9  87 NE5       30.43S WCI   4
CORTEZ         CLOUDY    14  10  84 NE9       30.45S WCI   2
PAGOSA SPRINGS CLOUDY   N/A N/A N/A CALM      30.44R
TELLURIDE      NOT AVBL
WOLF CREEK PAS CLOUDY    23   5  46 E6        30.50S WCI  16
$$

COZ009-010-012-014-032>034-037-058>063-081200-
...CENTRAL COLORADO...

CITY           SKY/WX    TMP DP  RH WIND       PRES   REMARKS
ASPEN          CLOUDY    12   5  73 SW9       30.53S WCI   0
BUENA VISTA    CLOUDY    30  12  46 NW6G13    30.36S WCI  24
COPPER MTN     CLOUDY    19  12  73 W16G32    30.46S WCI   5
BERTHOUD PASS  CLOUDY    10   1  67 NW44G58   30.36R HAZE    WCI -15
COTTONWOOD PAS CLOUDY    36   9  32 W14G36    30.37R
GUNNISON       CLOUDY    -8  -8 100 CALM      30.56S
KREMMLING      CLOUDY    23  12  63 W6        30.49F WCI  16
LEADVILLE      CLOUDY    14   7  73 NE7       30.48R WCI   4
MONARCH PASS   CLOUDY    12   7  79 MISG      30.52S
SALIDA         NOT AVBL
SUNLIGHT       CLEAR     21  14  73 W3          N/A
WILKERSON PASS CLOUDY    21  12  68 MISG      30.31F
$$

COZ069>075-081200-
...SAN LUIS VALLEY/SANGRE DE CRISTO MOUNTAINS...

CITY           SKY/WX    TMP DP  RH WIND       PRES   REMARKS
ALAMOSA        CLOUDY    10   5  80 SW6       30.41S WCI   0
LA VETA PASS   CLOUDY    21   7  53 MISG      30.34F
SAGUACHE       CLOUDY    28  12  50 N13       30.43R WCI  18
$$

COZ035-036-038>040-081200-
...NORTHERN COLORADO FRONT RANGE...

CITY           SKY/WX    TMP DP  RH WIND       PRES   REMARKS
DENVER INTL AP CLOUDY    19  11  70 S17       30.32F WCI   4
DMNS CITY PARK   N/A     22  16  78 S5        30.32F WCI  16
AURORA         PTCLDY    18  12  76 S10       30.32F WCI   6
FRONT RANGE AP NOT AVBL
ERIE MUNI ARPT CLOUDY    22  17  79 S5        30.33F WCI  16
BOULDER MUN AP CLOUDY    21  18  86 CALM      30.31F
CENTENNIAL     CLOUDY    21  14  74 S9        30.32F WCI  11
BROOMFIELD     CLOUDY    23  18  80 SW6       30.31F WCI  16
FORT COLLINS   CLOUDY    21  14  73 S6        30.34F WCI  14
LONGMONT       CLOUDY    19  13  78 W3        30.35F
$$

COZ041-046-047-076>085-087-088-081200-
...PIKES PEAK/PALMER DIVIDE AND SOUTHERN FOOTHILLS...

CITY           SKY/WX    TMP DP  RH WIND       PRES   REMARKS
COLO. SPRINGS  CLOUDY    23  19  85 SW6       30.36F WCI  16
A. F. ACADEMY  CLOUDY    21  19  92 CALM      30.34F
SCHRIEVER AFB  NOT AVBL
ELLICOTT       NOT AVBL
FALCON         CLOUDY    20  19  98 W7        30.35F FOG     WCI  11
FORT CARSON    CLOUDY    24  20  83 W5        30.36F WCI  18
LIMON          CLOUDY    16  10  77 SW5       30.34F WCI   9
MONUMENT HILL  CLOUDY    10   9  92 S6        30.34R WCI   1
TRINIDAD       CLOUDY    23  18  81 SE3       30.38F
$$

COZ042>045-048>051-090-091-081200-
...NORTHEAST COLORADO...

CITY           SKY/WX    TMP DP  RH WIND       PRES   REMARKS
GREELEY ARPT   CLOUDY    19  16  86 CALM      30.36F
AKRON          CLOUDY    20  11  68 NW15      30.31F WCI   6
BURLINGTON     CLEAR     20  10  65 NW16      30.32F WCI   6
WRAY           CLEAR     26  10  50 NW18      30.33F WCI  13
STERLING       CLOUDY    21  12  68 S5        30.35R WCI  15
HOLYOKE        CLEAR     30  12  47 NW15G21   30.31S WCI  19
FORT MORGAN    CLOUDY    14  12  90 W6        30.36F WCI   5
$$

COZ086-089-092>099-081200-
...SOUTHEAST COLORADO...

CITY           SKY/WX    TMP DP  RH WIND       PRES   REMARKS
PUEBLO         CLOUDY    30  22  72 CALM      30.41S
LA JUNTA       CLOUDY    26  21  81 W10       30.41F WCI  16
LAMAR          CLEAR     24  15  68 W13       30.39F WCI  12
SPRINGFIELD      N/A     23  15  71 NW12      30.39R WCI  12
$$



USA.gov is the U.S. government's official web portal to all federal, state and local government web resources and services.